Time,TemperatureF,DewpointF,PressureIn,WindDirection,WindDirectionDegrees,WindSpeedMPH,WindSpeedGustMPH,Humidity,HourlyPrecipIn,Conditions,Clouds,dailyrainin,SolarRadiationWatts/m^2,SoftwareType,DateUTC
2013-01-15 00:00:00,12.4,6.9,30.02,ENE,72,2.0,7.0,78,0.00,,OVC200,0.00,0.00,VWS V14.01,2013-01-15 06:00:00,
2013-01-15 00:03:00,12.6,7.1,30.02,ENE,71,0.0,1.0,78,0.00,,OVC200,0.00,0.00,VWS V14.01,2013-01-15 06:03:00,
2013-01-15 00:08:00,12.6,7.1,30.02,ENE,69,3.0,5.0,78,0.00,,OVC200,0.00,0.00,VWS V14.01,2013-01-15 06:08:00,
2013-01-15 00:13:00,12.9,7.3,30.02,ENE,67,3.0,6.0,78,0.00,,OVC200,0.00,0.00,VWS V14.01,2013-01-15 06:13:00,
2013-01-15 00:18:00,13.3,7.4,30.02,ENE,61,5.0,6.0,77,0.00,,OVC200,0.00,0.00,VWS V14.01,2013-01-15 06:18:00,
2013-01-15 00:23:00,13.6,7.7,30.02,NE,53,9.0,9.0,77,0.00,,OVC200,0.00,0.00,VWS V14.01,2013-01-15 06:23:00,
2013-01-15 00:28:00,14.3,8.4,30.02,NE,43,5.0,9.0,77,0.00,,OVC200,0.00,0.00,VWS V14.01,2013-01-15 06:28:00,
2013-01-15 00:30:00,14.9,8.7,30.01,NE,51,2.0,10.0,76,0.00,,OVC075,0.00,0.00,VWS V15.00,2013-01-15 06:30:00,
2013-01-15 00:33:00,14.9,8.7,30.01,NE,51,2.0,3.0,76,0.00,,OVC200,0.00,0.00,VWS V14.01,2013-01-15 06:33:00,
2013-01-15 00:38:00,15.2,8.7,30.01,NE,52,6.0,9.0,75,0.00,,OVC200,0.00,0.00,VWS V14.01,2013-01-15 06:38:00,
2013-01-15 00:43:00,15.6,9.1,30.01,ENE,61,3.0,10.0,75,0.00,,OVC200,0.00,0.00,VWS V14.01,2013-01-15 06:43:00,
2013-01-15 00:48:00,15.9,9.1,30.00,ENE,66,4.0,10.0,74,0.00,,OVC200,0.00,0.00,VWS V14.01,2013-01-15 06:48:00,
2013-01-15 00:53:00,16.1,9.0,30.00,NE,50,5.0,10.0,73,0.00,,OVC200,0.00,0.00,VWS V14.01,2013-01-15 06:53:00,
2013-01-15 00:58:00,16.2,9.1,30.00,NE,53,5.0,11.0,73,0.00,,OVC200,0.00,0.00,VWS V14.01,2013-01-15 06:58:00,
2013-01-15 01:00:00,16.4,9.3,30.01,ENE,72,5.0,11.0,73,0.00,,OVC075,0.00,0.00,VWS V15.00,2013-01-15 07:00:00,
2013-01-15 01:03:00,16.4,9.3,30.01,NE,55,5.0,5.0,73,0.00,,OVC200,0.00,0.00,VWS V14.01,2013-01-15 07:03:00,
2013-01-15 01:08:00,16.5,9.1,30.01,SW,233,4.0,12.0,72,0.00,,OVC200,0.00,0.00,VWS V14.01,2013-01-15 07:08:00,
2013-01-15 01:13:00,16.9,9.4,30.01,SSE,148,6.0,12.0,72,0.00,,OVC200,0.00,0.00,VWS V14.01,2013-01-15 07:13:00,
2013-01-15 01:18:00,16.9,9.1,30.02,ESE,105,3.0,12.0,71,0.00,,OVC200,0.00,0.00,VWS V14.01,2013-01-15 07:18:00,
2013-01-15 01:23:00,16.7,8.9,30.02,SE,132,5.0,12.0,71,0.00,,OVC200,0.00,0.00,VWS V14.01,2013-01-15 07:23:00,
2013-01-15 01:28:00,16.4,8.7,30.02,ESE,113,3.0,12.0,71,0.00,,OVC200,0.00,0.00,VWS V14.01,2013-01-15 07:28:00,
2013-01-15 01:30:00,15.9,8.2,30.02,ESE,121,3.0,12.0,71,0.00,,OVC075,0.00,0.00,VWS V15.00,2013-01-15 07:30:00,
2013-01-15 01:33:00,15.9,8.2,30.02,ESE,119,2.0,3.0,71,0.00,,OVC200,0.00,0.00,VWS V14.01,2013-01-15 07:33:00,
2013-01-15 01:38:00,15.4,8.0,30.02,NE,49,4.0,6.0,72,0.00,,OVC200,0.00,0.00,VWS V14.01,2013-01-15 07:38:00,
2013-01-15 01:43:00,15.2,8.1,30.02,ENE,67,2.0,6.0,73,0.00,,OVC200,0.00,0.00,VWS V14.01,2013-01-15 07:43:00,
2013-01-15 01:48:00,15.2,8.1,30.01,East,94,3.0,9.0,73,0.00,,OVC200,0.00,0.00,VWS V14.01,2013-01-15 07:48:00,
2013-01-15 01:53:00,15.2,8.1,30.01,East,91,2.0,10.0,73,0.00,,OVC200,0.00,0.00,VWS V14.01,2013-01-15 07:53:00,
2013-01-15 01:58:00,15.2,8.1,30.01,East,95,4.0,10.0,73,0.00,,OVC200,0.00,0.00,VWS V14.01,2013-01-15 07:58:00,
2013-01-15 02:00:00,15.2,8.1,30.01,SSE,149,3.0,10.0,73,0.00,,OVC075,0.00,0.00,VWS V15.00,2013-01-15 08:00:00,
2013-01-15 02:03:00,15.2,8.1,30.01,SSE,149,3.0,10.0,73,0.00,,OVC200,0.00,0.00,VWS V14.01,2013-01-15 08:03:00,
2013-01-15 02:08:00,15.2,8.1,30.01,NE,49,3.0,9.0,73,0.00,,OVC200,0.00,0.00,VWS V14.01,2013-01-15 08:08:00,
2013-01-15 02:13:00,15.4,8.3,30.01,ENE,62,1.0,9.0,73,0.00,,OVC200,0.00,0.00,VWS V14.01,2013-01-15 08:13:00,
2013-01-15 02:18:00,15.6,8.5,30.01,NE,51,5.0,10.0,73,0.00,,OVC200,0.00,0.00,VWS V14.01,2013-01-15 08:18:00,
2013-01-15 02:23:00,15.6,8.5,30.01,ENE,58,1.0,10.0,73,0.00,,OVC200,0.00,0.00,VWS V14.01,2013-01-15 08:23:00,
2013-01-15 02:28:00,15.6,8.5,30.01,NE,36,4.0,10.0,73,0.00,,OVC200,0.00,0.00,VWS V14.01,2013-01-15 08:28:00,
2013-01-15 02:30:00,15.6,8.5,30.01,NE,48,4.0,10.0,73,0.00,,OVC075,0.00,0.00,VWS V15.00,2013-01-15 08:30:00,
2013-01-15 02:33:00,15.6,8.5,30.01,NE,48,4.0,10.0,73,0.00,,OVC200,0.00,0.00,VWS V14.01,2013-01-15 08:33:00,
2013-01-15 02:38:00,15.6,8.5,30.01,NE,51,4.0,7.0,73,0.00,,OVC200,0.00,0.00,VWS V14.01,2013-01-15 08:38:00,
2013-01-15 02:43:00,15.6,8.5,30.01,NE,53,5.0,7.0,73,0.00,,OVC200,0.00,0.00,VWS V14.01,2013-01-15 08:43:00,
2013-01-15 02:48:00,15.4,8.3,30.02,NE,54,3.0,7.0,73,0.00,,OVC200,0.00,0.00,VWS V14.01,2013-01-15 08:48:00,
2013-01-15 02:53:00,15.4,8.6,30.02,NE,55,2.0,7.0,74,0.00,,OVC200,0.00,0.00,VWS V14.01,2013-01-15 08:53:00,
2013-01-15 02:58:00,15.2,8.4,30.02,NE,55,3.0,7.0,74,0.00,,OVC200,0.00,0.00,VWS V14.01,2013-01-15 08:58:00,
2013-01-15 03:00:00,15.2,8.4,30.02,ENE,57,2.0,7.0,74,0.00,,OVC075,0.00,0.00,VWS V15.00,2013-01-15 09:00:00,
2013-01-15 03:03:00,15.2,8.4,30.02,ENE,57,3.0,7.0,74,0.00,,OVC200,0.00,0.00,VWS V14.01,2013-01-15 09:03:00,
2013-01-15 03:08:00,15.1,8.3,30.02,ENE,57,3.0,6.0,74,0.00,,OVC200,0.00,0.00,VWS V14.01,2013-01-15 09:08:00,
2013-01-15 03:13:00,15.1,8.3,30.02,ENE,57,1.0,7.0,74,0.00,,OVC200,0.00,0.00,VWS V14.01,2013-01-15 09:13:00,
2013-01-15 03:18:00,14.9,8.1,30.01,NE,56,4.0,7.0,74,0.00,,OVC200,0.00,0.00,VWS V14.01,2013-01-15 09:18:00,
2013-01-15 03:23:00,14.8,8.3,30.01,ENE,57,3.0,7.0,75,0.00,,OVC200,0.00,0.00,VWS V14.01,2013-01-15 09:23:00,
2013-01-15 03:28:00,14.8,8.3,30.01,NE,56,2.0,7.0,75,0.00,,OVC200,0.00,0.00,VWS V14.01,2013-01-15 09:28:00,
2013-01-15 03:30:00,14.8,8.3,30.01,NE,56,3.0,7.0,75,0.00,,OVC075,0.00,0.00,VWS V15.00,2013-01-15 09:30:00,
2013-01-15 03:33:00,14.8,8.3,30.01,NE,56,2.0,7.0,75,0.00,,OVC200,0.00,0.00,VWS V14.01,2013-01-15 09:33:00,
2013-01-15 03:38:00,14.8,8.3,30.01,ENE,57,1.0,6.0,75,0.00,,OVC200,0.00,0.00,VWS V14.01,2013-01-15 09:38:00,
2013-01-15 03:43:00,14.6,8.1,30.01,NE,56,2.0,6.0,75,0.00,,OVC200,0.00,0.00,VWS V14.01,2013-01-15 09:43:00,
2013-01-15 03:48:00,14.8,8.3,30.00,NE,56,3.0,6.0,75,0.00,,OVC200,0.00,0.00,VWS V14.01,2013-01-15 09:48:00,
2013-01-15 03:53:00,14.6,8.1,30.00,NE,56,4.0,6.0,75,0.00,,OVC200,0.00,0.00,VWS V14.01,2013-01-15 09:53:00,
2013-01-15 03:58:00,14.6,8.1,30.00,NE,56,2.0,6.0,75,0.00,,OVC200,0.00,0.00,VWS V14.01,2013-01-15 09:58:00,
2013-01-15 04:00:00,14.4,7.9,30.00,NE,56,0.0,6.0,75,0.00,,OVC075,0.00,0.00,VWS V15.00,2013-01-15 10:00:00,
2013-01-15 04:03:00,14.4,7.9,30.00,NE,56,0.0,6.0,75,0.00,,OVC200,0.00,0.00,VWS V14.01,2013-01-15 10:03:00,
2013-01-15 04:08:00,14.1,7.7,30.00,NE,56,1.0,3.0,75,0.00,,OVC200,0.00,0.00,VWS V14.01,2013-01-15 10:08:00,
2013-01-15 04:13:00,13.8,7.4,30.00,NE,56,2.0,3.0,75,0.00,,OVC200,0.00,0.00,VWS V14.01,2013-01-15 10:13:00,
2013-01-15 04:18:00,13.6,7.5,30.00,NE,56,1.0,3.0,76,0.00,,OVC200,0.00,0.00,VWS V14.01,2013-01-15 10:18:00,
2013-01-15 04:23:00,13.6,7.5,30.00,NE,56,2.0,4.0,76,0.00,,OVC200,0.00,0.00,VWS V14.01,2013-01-15 10:23:00,
2013-01-15 04:28:00,13.5,7.4,30.00,NE,56,2.0,4.0,76,0.00,,OVC200,0.00,0.00,VWS V14.01,2013-01-15 10:28:00,
2013-01-15 04:30:00,13.3,7.2,29.99,NE,56,2.0,4.0,76,0.00,,OVC075,0.00,0.00,VWS V15.00,2013-01-15 10:30:00,
2013-01-15 04:33:00,13.3,7.2,29.99,NE,56,2.0,4.0,76,0.00,,OVC200,0.00,0.00,VWS V14.01,2013-01-15 10:33:00,
2013-01-15 04:38:00,13.1,7.0,29.99,NE,56,2.0,3.0,76,0.00,,OVC200,0.00,0.00,VWS V14.01,2013-01-15 10:38:00,
2013-01-15 04:43:00,12.9,7.1,29.99,NE,56,1.0,5.0,77,0.00,,OVC200,0.00,0.00,VWS V14.01,2013-01-15 10:43:00,
2013-01-15 04:48:00,12.8,7.0,29.98,NE,56,3.0,5.0,77,0.00,,OVC200,0.00,0.00,VWS V14.01,2013-01-15 10:48:00,
2013-01-15 04:53:00,12.8,7.0,29.98,NE,56,2.0,5.0,77,0.00,,OVC200,0.00,0.00,VWS V14.01,2013-01-15 10:53:00,
2013-01-15 04:58:00,12.8,7.2,29.98,NE,56,2.0,5.0,78,0.00,,OVC200,0.00,0.00,VWS V14.01,2013-01-15 10:58:00,
2013-01-15 05:00:00,12.9,7.3,29.98,NE,55,3.0,5.0,78,0.00,,OVC075,0.00,0.00,VWS V15.00,2013-01-15 11:00:00,
2013-01-15 05:03:00,12.8,7.2,29.98,NE,55,3.0,5.0,78,0.00,,OVC200,0.00,0.00,VWS V14.01,2013-01-15 11:03:00,
2013-01-15 05:08:00,12.8,7.2,29.98,NE,55,5.0,5.0,78,0.00,,OVC200,0.00,0.00,VWS V14.01,2013-01-15 11:08:00,
2013-01-15 05:13:00,12.8,7.2,29.98,NE,55,2.0,5.0,78,0.00,,OVC200,0.00,0.00,VWS V14.01,2013-01-15 11:13:00,
2013-01-15 05:18:00,12.6,7.1,29.98,NE,55,0.0,5.0,78,0.00,,OVC200,0.00,0.00,VWS V14.01,2013-01-15 11:18:00,
2013-01-15 05:23:00,12.6,7.1,29.98,NE,55,5.0,5.0,78,0.00,,OVC200,0.00,0.00,VWS V14.01,2013-01-15 11:23:00,
2013-01-15 05:28:00,12.6,7.1,29.98,NE,55,3.0,5.0,78,0.00,,OVC200,0.00,0.00,VWS V14.01,2013-01-15 11:28:00,
2013-01-15 05:30:00,12.6,7.1,29.98,NE,55,2.0,5.0,78,0.00,,OVC075,0.00,0.00,VWS V15.00,2013-01-15 11:30:00,
2013-01-15 05:33:00,12.6,7.1,29.98,NE,55,2.0,5.0,78,0.00,,OVC200,0.00,0.00,VWS V14.01,2013-01-15 11:33:00,
2013-01-15 05:38:00,12.4,6.9,29.98,NE,55,3.0,4.0,78,0.00,,OVC200,0.00,0.00,VWS V14.01,2013-01-15 11:38:00,
2013-01-15 05:43:00,12.3,6.8,29.98,NE,55,4.0,4.0,78,0.00,,OVC200,0.00,0.00,VWS V14.01,2013-01-15 11:43:00,
2013-01-15 05:48:00,12.1,6.6,29.98,NE,55,1.0,4.0,78,0.00,,OVC200,0.00,0.00,VWS V14.01,2013-01-15 11:48:00,
2013-01-15 05:53:00,11.9,6.7,29.98,NE,55,1.0,4.0,79,0.00,,OVC200,0.00,0.00,VWS V14.01,2013-01-15 11:53:00,
2013-01-15 05:58:00,11.9,6.7,29.98,NE,55,1.0,4.0,79,0.00,,OVC200,0.00,0.00,VWS V14.01,2013-01-15 11:58:00,
2013-01-15 06:00:00,11.7,6.5,29.98,NE,55,1.0,4.0,79,0.00,,OVC075,0.00,0.00,VWS V15.00,2013-01-15 12:00:00,
2013-01-15 06:03:00,11.7,6.5,29.98,NE,55,0.0,4.0,79,0.00,,OVC200,0.00,0.00,VWS V14.01,2013-01-15 12:03:00,
2013-01-15 06:08:00,11.7,6.5,29.98,NE,55,1.0,5.0,79,0.00,,OVC200,0.00,0.00,VWS V14.01,2013-01-15 12:08:00,
2013-01-15 06:13:00,11.7,6.5,29.98,NE,55,2.0,5.0,79,0.00,,OVC200,0.00,0.00,VWS V14.01,2013-01-15 12:13:00,
2013-01-15 06:18:00,11.7,6.5,29.98,NE,55,1.0,5.0,79,0.00,,OVC200,0.00,0.00,VWS V14.01,2013-01-15 12:18:00,
2013-01-15 06:23:00,11.6,6.6,29.98,NE,55,1.0,5.0,80,0.00,,OVC200,0.00,0.00,VWS V14.01,2013-01-15 12:23:00,
2013-01-15 06:28:00,11.6,6.6,29.98,NE,55,3.0,5.0,80,0.00,,OVC200,0.00,0.00,VWS V14.01,2013-01-15 12:28:00,
2013-01-15 06:30:00,11.6,6.6,29.97,NE,55,2.0,5.0,80,0.00,,OVC075,0.00,0.00,VWS V15.00,2013-01-15 12:30:00,
2013-01-15 06:33:00,11.6,6.6,29.97,NE,55,2.0,5.0,80,0.00,,OVC200,0.00,0.00,VWS V14.01,2013-01-15 12:33:00,
2013-01-15 06:38:00,11.6,6.6,29.97,NE,55,2.0,5.0,80,0.00,,OVC200,0.00,0.00,VWS V14.01,2013-01-15 12:38:00,
2013-01-15 06:43:00,11.6,6.6,29.97,NE,56,3.0,6.0,80,0.00,,OVC200,0.00,0.00,VWS V14.01,2013-01-15 12:43:00,
2013-01-15 06:48:00,11.6,6.6,29.97,NE,56,1.0,6.0,80,0.00,,OVC200,0.00,0.00,VWS V14.01,2013-01-15 12:48:00,
2013-01-15 06:53:00,11.6,6.6,29.97,NE,56,4.0,6.0,80,0.00,,OVC200,0.00,0.00,VWS V14.01,2013-01-15 12:53:00,
2013-01-15 06:58:00,11.6,6.6,29.97,NE,56,2.0,6.0,80,0.00,,OVC200,0.00,0.00,VWS V14.01,2013-01-15 12:58:00,
2013-01-15 07:00:00,11.6,6.6,29.98,NE,56,4.0,6.0,80,0.00,,OVC075,0.00,0.00,VWS V15.00,2013-01-15 13:00:00,
2013-01-15 07:03:00,11.6,6.6,29.98,NE,56,3.0,6.0,80,0.00,,OVC200,0.00,0.00,VWS V14.01,2013-01-15 13:03:00,
2013-01-15 07:08:00,11.6,6.6,29.98,NE,56,2.0,4.0,80,0.00,,OVC200,0.00,0.00,VWS V14.01,2013-01-15 13:08:00,
2013-01-15 07:13:00,11.6,6.6,29.98,NE,56,1.0,4.0,80,0.00,,OVC200,0.00,0.00,VWS V14.01,2013-01-15 13:13:00,
2013-01-15 07:18:00,11.6,6.6,29.97,NE,56,1.0,4.0,80,0.00,,OVC200,0.00,0.00,VWS V14.01,2013-01-15 13:18:00,
2013-01-15 07:23:00,11.6,6.6,29.97,NE,56,1.0,4.0,80,0.00,,OVC200,0.00,0.00,VWS V14.01,2013-01-15 13:23:00,
2013-01-15 07:28:00,11.4,6.4,29.97,NE,56,0.0,5.0,80,0.00,,OVC200,0.00,0.00,VWS V14.01,2013-01-15 13:28:00,
2013-01-15 07:30:00,11.6,6.6,29.97,NE,56,4.0,5.0,80,0.00,,OVC075,0.00,0.00,VWS V15.00,2013-01-15 13:30:00,
2013-01-15 07:33:00,11.6,6.6,29.97,NE,56,2.0,5.0,80,0.00,,OVC200,0.00,0.00,VWS V14.01,2013-01-15 13:33:00,
2013-01-15 07:38:00,11.4,6.4,29.97,NE,56,2.0,4.0,80,0.00,,OVC200,0.00,0.00,VWS V14.01,2013-01-15 13:38:00,
2013-01-15 07:43:00,11.4,6.4,29.97,NE,56,2.0,5.0,80,0.00,,OVC200,0.00,0.00,VWS V14.01,2013-01-15 13:43:00,
2013-01-15 07:48:00,11.4,6.4,29.97,NE,56,2.0,5.0,80,0.00,,OVC200,0.00,0.00,VWS V14.01,2013-01-15 13:48:00,
2013-01-15 07:53:00,11.4,6.4,29.97,NE,56,1.0,5.0,80,0.00,,OVC200,0.00,5.00,VWS V14.01,2013-01-15 13:53:00,
2013-01-15 07:58:00,11.4,6.4,29.97,NE,56,0.0,5.0,80,0.00,,OVC200,0.00,7.00,VWS V14.01,2013-01-15 13:58:00,
2013-01-15 08:00:00,11.4,6.4,29.97,NE,56,1.0,5.0,80,0.00,,OVC075,0.00,9.00,VWS V15.00,2013-01-15 14:00:00,
2013-01-15 08:03:00,11.4,6.4,29.97,NE,56,1.0,5.0,80,0.00,,OVC200,0.00,9.00,VWS V14.01,2013-01-15 14:03:00,
2013-01-15 08:08:00,11.6,6.6,29.97,NE,56,2.0,4.0,80,0.00,,OVC200,0.00,11.00,VWS V14.01,2013-01-15 14:08:00,
2013-01-15 08:13:00,11.6,6.6,29.97,NE,56,0.0,5.0,80,0.00,,OVC200,0.00,12.00,VWS V14.01,2013-01-15 14:13:00,
2013-01-15 08:18:00,11.7,6.7,29.97,NE,56,2.0,5.0,80,0.00,,OVC200,0.00,14.00,VWS V14.01,2013-01-15 14:18:00,
2013-01-15 08:23:00,11.9,6.9,29.97,NE,56,0.0,5.0,80,0.00,,OVC200,0.00,14.00,VWS V14.01,2013-01-15 14:23:00,
2013-01-15 08:28:00,12.1,7.1,29.97,NE,56,3.0,5.0,80,0.00,,OVC200,0.00,16.00,VWS V14.01,2013-01-15 14:28:00,
2013-01-15 08:30:00,12.4,7.1,29.97,NE,56,3.0,6.0,79,0.00,,OVC075,0.00,18.00,VWS V15.00,2013-01-15 14:30:00,
2013-01-15 08:33:00,12.3,7.0,29.97,NE,56,2.0,6.0,79,0.00,,OVC200,0.00,18.00,VWS V14.01,2013-01-15 14:33:00,
2013-01-15 08:38:00,12.6,7.3,29.97,NE,55,2.0,5.0,79,0.00,,OVC200,0.00,19.00,VWS V14.01,2013-01-15 14:38:00,
2013-01-15 08:43:00,12.9,7.6,29.97,NE,56,3.0,6.0,79,0.00,,OVC200,0.00,19.00,VWS V14.01,2013-01-15 14:43:00,
2013-01-15 08:48:00,13.3,8.0,29.97,NE,53,3.0,6.0,79,0.00,,OVC200,0.00,21.00,VWS V14.01,2013-01-15 14:48:00,
2013-01-15 08:53:00,13.5,7.9,29.97,NE,55,1.0,6.0,78,0.00,,OVC200,0.00,21.00,VWS V14.01,2013-01-15 14:53:00,
2013-01-15 08:58:00,13.6,8.0,29.97,NE,56,2.0,7.0,78,0.00,,OVC200,0.00,23.00,VWS V14.01,2013-01-15 14:58:00,
2013-01-15 09:00:00,14.0,8.1,29.97,ENE,58,5.0,7.0,77,0.00,,OVC075,0.00,25.00,VWS V15.00,2013-01-15 15:00:00,
2013-01-15 09:03:00,14.0,8.1,29.97,NE,55,3.0,7.0,77,0.00,,OVC200,0.00,25.00,VWS V14.01,2013-01-15 15:03:00,
2013-01-15 09:08:00,14.1,8.2,29.97,ENE,61,3.0,9.0,77,0.00,,OVC200,0.00,25.00,VWS V14.01,2013-01-15 15:08:00,
2013-01-15 09:13:00,14.3,8.1,29.97,ENE,59,0.0,9.0,76,0.00,,OVC200,0.00,26.00,VWS V14.01,2013-01-15 15:13:00,
2013-01-15 09:18:00,14.6,8.4,29.97,NE,55,3.0,9.0,76,0.00,,OVC200,0.00,26.00,VWS V14.01,2013-01-15 15:18:00,
2013-01-15 09:23:00,14.9,8.7,29.97,NE,55,3.0,9.0,76,0.00,,OVC200,0.00,26.00,VWS V14.01,2013-01-15 15:23:00,
2013-01-15 09:28:00,15.2,9.0,29.97,NE,55,2.0,9.0,76,0.00,,OVC200,0.00,28.00,VWS V14.01,2013-01-15 15:28:00,
2013-01-15 09:30:00,15.6,9.4,29.96,NE,55,1.0,9.0,76,0.00,,OVC075,0.00,28.00,VWS V15.00,2013-01-15 15:30:00,
2013-01-15 09:33:00,15.4,8.9,29.96,NE,55,2.0,9.0,75,0.00,,OVC200,0.00,28.00,VWS V14.01,2013-01-15 15:33:00,
2013-01-15 09:38:00,15.9,9.4,29.96,NE,55,2.0,5.0,75,0.00,,OVC200,0.00,30.00,VWS V14.01,2013-01-15 15:38:00,
2013-01-15 09:43:00,16.1,9.3,29.96,NE,55,1.0,7.0,74,0.00,,OVC200,0.00,30.00,VWS V14.01,2013-01-15 15:43:00,
2013-01-15 09:48:00,16.4,9.3,29.96,NE,56,4.0,7.0,73,0.00,,OVC200,0.00,30.00,VWS V14.01,2013-01-15 15:48:00,
2013-01-15 09:53:00,16.7,9.6,29.96,ENE,57,2.0,7.0,73,0.00,,OVC200,0.00,32.00,VWS V14.01,2013-01-15 15:53:00,
2013-01-15 09:58:00,17.0,9.9,29.96,NE,54,5.0,9.0,73,0.00,,OVC200,0.00,32.00,VWS V14.01,2013-01-15 15:58:00,
2013-01-15 10:00:00,17.5,10.0,29.96,ENE,65,7.0,9.0,72,0.00,,OVC075,0.00,33.00,VWS V15.00,2013-01-15 16:00:00,
2013-01-15 10:03:00,17.5,10.0,29.96,NE,56,2.0,9.0,72,0.00,,OVC200,0.00,33.00,VWS V14.01,2013-01-15 16:03:00,
2013-01-15 10:08:00,17.7,10.2,29.96,NE,46,7.0,10.0,72,0.00,,OVC200,0.00,33.00,VWS V14.01,2013-01-15 16:08:00,
2013-01-15 10:13:00,18.0,10.2,29.96,ENE,76,4.0,10.0,71,0.00,,OVC200,0.00,33.00,VWS V14.01,2013-01-15 16:13:00,
2013-01-15 10:18:00,18.1,10.3,29.96,East,85,5.0,10.0,71,0.00,,OVC200,0.00,33.00,VWS V14.01,2013-01-15 16:18:00,
2013-01-15 10:23:00,18.4,10.3,29.96,NE,45,6.0,10.0,70,0.00,,OVC200,0.00,33.00,VWS V14.01,2013-01-15 16:23:00,
2013-01-15 10:28:00,18.8,10.3,29.96,NE,56,6.0,10.0,69,0.00,,OVC200,0.00,35.00,VWS V14.01,2013-01-15 16:28:00,
2013-01-15 10:30:00,19.2,10.7,29.95,NE,48,4.0,10.0,69,0.00,,OVC075,0.00,35.00,VWS V15.00,2013-01-15 16:30:00,
2013-01-15 10:33:00,19.2,10.7,29.95,NE,40,2.0,10.0,69,0.00,,OVC200,0.00,35.00,VWS V14.01,2013-01-15 16:33:00,
2013-01-15 10:38:00,19.5,10.7,29.95,ENE,57,4.0,8.0,68,0.00,,OVC200,0.00,35.00,VWS V14.01,2013-01-15 16:38:00,
2013-01-15 10:43:00,20.0,11.1,29.95,ENE,70,3.0,11.0,68,0.00,,OVC200,0.00,35.00,VWS V14.01,2013-01-15 16:43:00,
2013-01-15 10:48:00,20.3,11.1,29.95,NE,47,2.0,11.0,67,0.00,,OVC200,0.00,35.00,VWS V14.01,2013-01-15 16:48:00,
2013-01-15 10:53:00,20.6,11.4,29.95,NE,46,4.0,11.0,67,0.00,,OVC200,0.00,37.00,VWS V14.01,2013-01-15 16:53:00,
2013-01-15 10:57:00,21.0,11.4,29.95,ENE,61,5.0,12.0,66,0.00,,OVC200,0.00,37.00,VWS V14.01,2013-01-15 16:57:00,
2013-01-15 11:00:00,21.4,11.8,29.94,SE,142,13.0,15.0,66,0.00,,OVC075,0.00,37.00,VWS V15.00,2013-01-15 17:00:00,
2013-01-15 11:02:00,21.4,11.8,29.94,NE,55,6.0,15.0,66,0.00,,OVC200,0.00,37.00,VWS V14.01,2013-01-15 17:02:00,
2013-01-15 11:07:00,21.8,11.9,29.94,NE,46,11.0,13.0,65,0.00,,OVC200,0.00,37.00,VWS V14.01,2013-01-15 17:07:00,
2013-01-15 11:12:00,22.1,12.1,29.94,ESE,110,3.0,13.0,65,0.00,,OVC200,0.00,37.00,VWS V14.01,2013-01-15 17:12:00,
2013-01-15 11:17:00,22.2,12.2,29.93,East,80,7.0,15.0,65,0.00,,OVC200,0.00,39.00,VWS V14.01,2013-01-15 17:17:00,
2013-01-15 11:22:00,22.5,12.5,29.93,NE,49,11.0,15.0,65,0.00,,OVC200,0.00,39.00,VWS V14.01,2013-01-15 17:22:00,
2013-01-15 11:27:00,22.9,12.9,29.93,ENE,60,3.0,15.0,65,0.00,,OVC200,0.00,39.00,VWS V14.01,2013-01-15 17:27:00,
2013-01-15 11:30:00,23.0,12.6,29.92,NE,34,9.0,15.0,64,0.00,,OVC075,0.00,39.00,VWS V15.00,2013-01-15 17:30:00,
2013-01-15 11:32:00,23.0,12.6,29.92,SSE,151,7.0,15.0,64,0.00,,OVC200,0.00,39.00,VWS V14.01,2013-01-15 17:32:00,
2013-01-15 11:37:00,23.3,12.6,29.92,NE,40,4.0,10.0,63,0.00,,OVC200,0.00,39.00,VWS V14.01,2013-01-15 17:37:00,
2013-01-15 11:42:00,23.5,12.8,29.92,NE,51,10.0,13.0,63,0.00,,OVC200,0.00,39.00,VWS V14.01,2013-01-15 17:42:00,
2013-01-15 11:47:00,23.8,12.7,29.92,ESE,115,3.0,13.0,62,0.00,,OVC200,0.00,39.00,VWS V14.01,2013-01-15 17:47:00,
2013-01-15 11:52:00,24.1,13.0,29.91,ENE,64,4.0,13.0,62,0.00,,OVC200,0.00,49.00,VWS V14.01,2013-01-15 17:52:00,
2013-01-15 11:57:00,24.8,13.3,29.91,East,89,3.0,13.0,61,0.00,,OVC200,0.00,413.00,VWS V14.01,2013-01-15 17:57:00,
2013-01-15 12:00:00,25.3,13.4,29.90,ESE,108,5.0,13.0,60,0.00,,OVC075,0.00,415.00,VWS V15.00,2013-01-15 18:00:00,
2013-01-15 12:02:00,25.3,13.4,29.90,SSE,163,4.0,13.0,60,0.00,,OVC200,0.00,413.00,VWS V14.01,2013-01-15 18:02:00,
2013-01-15 12:07:00,25.7,13.4,29.90,East,94,5.0,12.0,59,0.00,,OVC200,0.00,417.00,VWS V14.01,2013-01-15 18:07:00,
2013-01-15 12:12:00,25.8,13.9,29.90,ENE,78,4.0,12.0,60,0.00,,OVC200,0.00,417.00,VWS V14.01,2013-01-15 18:12:00,
2013-01-15 12:17:00,26.3,13.9,29.89,NE,45,3.0,12.0,59,0.00,,OVC200,0.00,418.00,VWS V14.01,2013-01-15 18:17:00,
2013-01-15 12:22:00,26.6,13.4,29.89,ESE,103,5.0,12.0,57,0.00,,OVC200,0.00,418.00,VWS V14.01,2013-01-15 18:22:00,
2013-01-15 12:27:00,26.9,13.7,29.89,NE,36,3.0,12.0,57,0.00,,OVC200,0.00,418.00,VWS V14.01,2013-01-15 18:27:00,
2013-01-15 12:30:00,27.0,13.4,29.88,ESE,102,4.0,12.0,56,0.00,,OVC075,0.00,418.00,VWS V15.00,2013-01-15 18:30:00,
2013-01-15 12:32:00,26.9,13.3,29.89,ENE,61,2.0,12.0,56,0.00,,OVC200,0.00,417.00,VWS V14.01,2013-01-15 18:32:00,
2013-01-15 12:37:00,27.0,13.4,29.88,NE,55,5.0,10.0,56,0.00,,OVC200,0.00,417.00,VWS V14.01,2013-01-15 18:37:00,
2013-01-15 12:42:00,27.0,13.8,29.88,ENE,59,2.0,10.0,57,0.00,,OVC200,0.00,415.00,VWS V14.01,2013-01-15 18:42:00,
2013-01-15 12:47:00,27.2,13.6,29.88,ESE,103,2.0,13.0,56,0.00,,OVC200,0.00,411.00,VWS V14.01,2013-01-15 18:47:00,
2013-01-15 12:52:00,27.2,13.6,29.88,ENE,66,9.0,13.0,56,0.00,,OVC200,0.00,413.00,VWS V14.01,2013-01-15 18:52:00,
2013-01-15 12:57:00,27.3,14.1,29.88,ENE,65,3.0,13.0,57,0.00,,OVC200,0.00,411.00,VWS V14.01,2013-01-15 18:57:00,
2013-01-15 13:00:00,27.3,14.1,29.86,ENE,72,2.0,13.0,57,0.00,,OVC075,0.00,406.00,VWS V15.00,2013-01-15 19:00:00,
2013-01-15 13:02:00,27.3,13.7,29.88,NE,43,6.0,13.0,56,0.00,,OVC200,0.00,406.00,VWS V14.01,2013-01-15 19:02:00,
2013-01-15 13:07:00,27.6,13.6,29.86,ENE,71,6.0,11.0,55,0.00,,OVC200,0.00,404.00,VWS V14.01,2013-01-15 19:07:00,
2013-01-15 13:12:00,27.8,14.2,29.86,ENE,71,3.0,11.0,56,0.00,,OVC200,0.00,399.00,VWS V14.01,2013-01-15 19:12:00,
2013-01-15 13:17:00,28.1,14.4,29.86,East,99,4.0,14.0,56,0.00,,OVC200,0.00,396.00,VWS V14.01,2013-01-15 19:17:00,
2013-01-15 13:22:00,28.2,14.1,29.85,ENE,75,5.0,14.0,55,0.00,,OVC200,0.00,392.00,VWS V14.01,2013-01-15 19:22:00,
2013-01-15 13:27:00,28.2,14.1,29.85,ENE,63,7.0,14.0,55,0.00,,OVC200,0.00,385.00,VWS V14.01,2013-01-15 19:27:00,
2013-01-15 13:30:00,28.5,14.4,29.85,NE,46,10.0,14.0,55,0.00,,OVC075,0.00,378.00,VWS V15.00,2013-01-15 19:30:00,
2013-01-15 13:32:00,28.4,13.9,29.85,East,85,1.0,14.0,54,0.00,,OVC200,0.00,380.00,VWS V14.01,2013-01-15 19:32:00,
2013-01-15 13:37:00,28.5,14.0,29.85,NNE,28,4.0,12.0,54,0.00,,OVC200,0.00,376.00,VWS V14.01,2013-01-15 19:37:00,
2013-01-15 13:42:00,28.7,14.6,29.85,NE,49,3.0,13.0,55,0.00,,OVC200,0.00,371.00,VWS V14.01,2013-01-15 19:42:00,
2013-01-15 13:47:00,28.5,14.4,29.85,ENE,69,6.0,13.0,55,0.00,,OVC200,0.00,366.00,VWS V14.01,2013-01-15 19:47:00,
2013-01-15 13:52:00,28.7,14.6,29.83,East,80,11.0,13.0,55,0.00,,OVC200,0.00,362.00,VWS V14.01,2013-01-15 19:52:00,
2013-01-15 13:57:00,28.7,15.0,29.83,SE,142,11.0,13.0,56,0.00,,OVC200,0.00,352.00,VWS V14.01,2013-01-15 19:57:00,
2013-01-15 14:00:00,28.7,15.4,29.83,ENE,73,5.0,14.0,57,0.00,,OVC075,0.00,345.00,VWS V15.00,2013-01-15 20:00:00,
2013-01-15 14:02:00,28.7,15.0,29.83,ESE,122,6.0,14.0,56,0.00,,OVC200,0.00,345.00,VWS V14.01,2013-01-15 20:02:00,
2013-01-15 14:07:00,28.8,15.5,29.83,ENE,60,4.0,12.0,57,0.00,,OVC200,0.00,336.00,VWS V14.01,2013-01-15 20:07:00,
2013-01-15 14:12:00,29.0,15.7,29.83,NE,48,4.0,12.0,57,0.00,,OVC200,0.00,46.00,VWS V14.01,2013-01-15 20:12:00,
2013-01-15 14:17:00,29.0,15.7,29.83,East,79,4.0,12.0,57,0.00,,OVC200,0.00,44.00,VWS V14.01,2013-01-15 20:17:00,
2013-01-15 14:22:00,29.4,16.5,29.83,East,99,4.0,12.0,58,0.00,,OVC200,0.00,44.00,VWS V14.01,2013-01-15 20:22:00,
2013-01-15 14:27:00,29.5,16.6,29.83,SE,126,5.0,14.0,58,0.00,,OVC200,0.00,44.00,VWS V14.01,2013-01-15 20:27:00,
2013-01-15 14:30:00,29.7,16.8,29.83,East,92,3.0,14.0,58,0.00,,OVC075,0.00,44.00,VWS V15.00,2013-01-15 20:30:00,
2013-01-15 14:32:00,29.7,16.8,29.83,ENE,58,5.0,14.0,58,0.00,,OVC200,0.00,44.00,VWS V14.01,2013-01-15 20:32:00,
2013-01-15 14:37:00,29.7,16.8,29.83,NE,44,3.0,13.0,58,0.00,,OVC200,0.00,44.00,VWS V14.01,2013-01-15 20:37:00,
2013-01-15 14:42:00,29.7,16.8,29.83,ESE,110,9.0,13.0,58,0.00,,OVC200,0.00,44.00,VWS V14.01,2013-01-15 20:42:00,
2013-01-15 14:47:00,29.7,16.8,29.83,East,79,11.0,14.0,58,0.00,,OVC200,0.00,51.00,VWS V14.01,2013-01-15 20:47:00,
2013-01-15 14:52:00,29.7,16.8,29.83,NE,48,4.0,16.0,58,0.00,,OVC200,0.00,53.00,VWS V14.01,2013-01-15 20:52:00,
2013-01-15 14:57:00,29.7,17.1,29.83,NE,47,10.0,16.0,59,0.00,,OVC200,0.00,49.00,VWS V14.01,2013-01-15 20:57:00,
2013-01-15 15:00:00,29.7,16.3,29.82,ESE,109,7.0,19.0,57,0.00,,OVC075,0.00,42.00,VWS V15.00,2013-01-15 21:00:00,
2013-01-15 15:02:00,29.7,16.4,29.83,ENE,76,4.0,19.0,57,0.00,,OVC200,0.00,42.00,VWS V14.01,2013-01-15 21:02:00,
2013-01-15 15:03:00,29.7,16.4,29.82,ESE,109,7.0,19.0,57,0.00,,OVC200,0.00,42.00,VWS V14.01,2013-01-15 21:03:00,
2013-01-15 15:08:00,29.8,16.8,29.82,ENE,69,4.0,15.0,58,0.00,,OVC200,0.00,44.00,VWS V14.01,2013-01-15 21:08:00,
2013-01-15 15:13:00,30.0,17.4,29.82,ENE,61,2.0,15.0,59,0.00,,OVC200,0.00,46.00,VWS V14.01,2013-01-15 21:13:00,
2013-01-15 15:18:00,30.0,16.6,29.81,East,91,2.0,15.0,57,0.00,,OVC200,0.00,46.00,VWS V14.01,2013-01-15 21:18:00,
2013-01-15 15:23:00,29.8,16.8,29.81,SE,131,3.0,15.0,58,0.00,,OVC200,0.00,35.00,VWS V14.01,2013-01-15 21:23:00,
2013-01-15 15:28:00,29.7,17.1,29.81,East,100,13.0,15.0,59,0.00,,OVC200,0.00,42.00,VWS V14.01,2013-01-15 21:28:00,
2013-01-15 15:30:00,29.7,17.1,29.81,NE,38,9.0,15.0,59,0.00,,OVC075,0.00,37.00,VWS V15.00,2013-01-15 21:30:00,
2013-01-15 15:33:00,29.7,17.1,29.81,NE,38,9.0,15.0,59,0.00,,OVC200,0.00,37.00,VWS V14.01,2013-01-15 21:33:00,
2013-01-15 15:38:00,29.8,17.2,29.81,ENE,57,4.0,12.0,59,0.00,,OVC200,0.00,35.00,VWS V14.01,2013-01-15 21:38:00,
2013-01-15 15:43:00,29.8,17.2,29.81,ENE,62,5.0,12.0,59,0.00,,OVC200,0.00,33.00,VWS V14.01,2013-01-15 21:43:00,
2013-01-15 15:48:00,29.7,15.9,29.80,NE,51,5.0,15.0,56,0.00,,OVC200,0.00,30.00,VWS V14.01,2013-01-15 21:48:00,
2013-01-15 15:53:00,29.7,15.5,29.80,ENE,74,4.0,15.0,55,0.00,,OVC200,0.00,30.00,VWS V14.01,2013-01-15 21:53:00,
2013-01-15 15:58:00,29.8,15.6,29.80,NE,48,4.0,15.0,55,0.00,,OVC200,0.00,113.00,VWS V14.01,2013-01-15 21:58:00,
2013-01-15 16:00:00,30.0,15.8,29.80,ESE,115,4.0,15.0,55,0.00,,OVC075,0.00,98.00,VWS V15.00,2013-01-15 22:00:00,
2013-01-15 16:03:00,30.0,15.8,29.80,SE,130,4.0,15.0,55,0.00,,OVC200,0.00,98.00,VWS V14.01,2013-01-15 22:03:00,
2013-01-15 16:08:00,30.0,16.2,29.80,ENE,67,3.0,11.0,56,0.00,,OVC200,0.00,86.00,VWS V14.01,2013-01-15 22:08:00,
2013-01-15 16:13:00,30.0,16.2,29.80,ENE,65,4.0,13.0,56,0.00,,OVC200,0.00,74.00,VWS V14.01,2013-01-15 22:13:00,
2013-01-15 16:18:00,30.0,15.8,29.80,NE,47,5.0,13.0,55,0.00,,OVC200,0.00,62.00,VWS V14.01,2013-01-15 22:18:00,
2013-01-15 16:23:00,29.8,15.6,29.80,East,94,4.0,13.0,55,0.00,,OVC200,0.00,53.00,VWS V14.01,2013-01-15 22:23:00,
2013-01-15 16:28:00,29.7,15.5,29.80,NE,49,4.0,13.0,55,0.00,,OVC200,0.00,42.00,VWS V14.01,2013-01-15 22:28:00,
2013-01-15 16:30:00,29.5,15.3,29.79,East,80,4.0,13.0,55,0.00,,OVC075,0.00,33.00,VWS V15.00,2013-01-15 22:30:00,
2013-01-15 16:33:00,29.5,15.3,29.79,ENE,62,4.0,13.0,55,0.00,,OVC200,0.00,33.00,VWS V14.01,2013-01-15 22:33:00,
2013-01-15 16:38:00,29.4,15.2,29.79,ENE,68,2.0,8.0,55,0.00,,OVC200,0.00,25.00,VWS V14.01,2013-01-15 22:38:00,
2013-01-15 16:43:00,29.3,15.1,29.79,NE,54,4.0,8.0,55,0.00,,OVC200,0.00,19.00,VWS V14.01,2013-01-15 22:43:00,
2013-01-15 16:48:00,29.0,15.3,29.79,ENE,72,3.0,11.0,56,0.00,,OVC200,0.00,12.00,VWS V14.01,2013-01-15 22:48:00,
2013-01-15 16:53:00,28.7,15.0,29.79,ESE,105,1.0,11.0,56,0.00,,OVC200,0.00,9.00,VWS V14.01,2013-01-15 22:53:00,
2013-01-15 16:58:00,28.5,15.2,29.79,ENE,68,0.0,11.0,57,0.00,,OVC200,0.00,5.00,VWS V14.01,2013-01-15 22:58:00,
2013-01-15 17:00:00,28.2,14.9,29.79,ENE,63,6.0,11.0,57,0.00,,OVC075,0.00,5.00,VWS V15.00,2013-01-15 23:00:00,
2013-01-15 17:03:00,28.2,14.9,29.79,ESE,119,2.0,11.0,57,0.00,,OVC200,0.00,5.00,VWS V14.01,2013-01-15 23:03:00,
2013-01-15 17:08:00,28.2,14.5,29.79,ENE,61,5.0,7.0,56,0.00,,OVC200,0.00,0.00,VWS V14.01,2013-01-15 23:08:00,
2013-01-15 17:13:00,28.2,14.1,29.79,East,80,4.0,9.0,55,0.00,,OVC200,0.00,0.00,VWS V14.01,2013-01-15 23:13:00,
2013-01-15 17:18:00,28.1,14.0,29.79,East,87,3.0,9.0,55,0.00,,OVC200,0.00,0.00,VWS V14.01,2013-01-15 23:18:00,
2013-01-15 17:23:00,27.9,13.8,29.79,ESE,116,4.0,13.0,55,0.00,,OVC200,0.00,0.00,VWS V14.01,2013-01-15 23:23:00,
2013-01-15 17:28:00,27.9,13.4,29.79,ENE,78,3.0,13.0,54,0.00,,OVC200,0.00,0.00,VWS V14.01,2013-01-15 23:28:00,
2013-01-15 17:30:00,27.6,13.6,29.79,ENE,63,3.0,13.0,55,0.00,,OVC075,0.00,0.00,VWS V15.00,2013-01-15 23:30:00,
2013-01-15 17:33:00,27.6,13.6,29.79,ENE,67,1.0,13.0,55,0.00,,OVC200,0.00,0.00,VWS V14.01,2013-01-15 23:33:00,
2013-01-15 17:38:00,27.5,13.5,29.79,ENE,71,3.0,6.0,55,0.00,,OVC200,0.00,0.00,VWS V14.01,2013-01-15 23:38:00,
2013-01-15 17:43:00,27.3,13.3,29.79,ENE,74,2.0,6.0,55,0.00,,OVC200,0.00,0.00,VWS V14.01,2013-01-15 23:43:00,
2013-01-15 17:48:00,27.2,13.2,29.78,NE,46,3.0,6.0,55,0.00,,OVC200,0.00,0.00,VWS V14.01,2013-01-15 23:48:00,
2013-01-15 17:53:00,27.0,13.4,29.78,NE,51,5.0,6.0,56,0.00,,OVC200,0.00,0.00,VWS V14.01,2013-01-15 23:53:00,
2013-01-15 17:58:00,26.9,13.3,29.78,NE,55,2.0,6.0,56,0.00,,OVC200,0.00,0.00,VWS V14.01,2013-01-15 23:58:00,
2013-01-15 18:00:00,26.7,13.5,29.77,NE,46,1.0,6.0,57,0.00,,OVC075,0.00,0.00,VWS V15.00,2013-01-16 00:00:00,
2013-01-15 18:03:00,26.7,13.1,29.77,NE,46,2.0,6.0,56,0.00,,OVC200,0.00,0.00,VWS V14.01,2013-01-16 00:03:00,
2013-01-15 18:08:00,26.6,13.4,29.77,NE,48,4.0,5.0,57,0.00,,OVC200,0.00,0.00,VWS V14.01,2013-01-16 00:08:00,
2013-01-15 18:13:00,26.1,13.4,29.77,NE,51,2.0,5.0,58,0.00,,OVC200,0.00,0.00,VWS V14.01,2013-01-16 00:13:00,
2013-01-15 18:18:00,25.7,13.4,29.76,NE,51,0.0,5.0,59,0.00,,OVC200,0.00,0.00,VWS V14.01,2013-01-16 00:18:00,
2013-01-15 18:23:00,25.4,13.5,29.76,NE,51,2.0,5.0,60,0.00,,OVC200,0.00,0.00,VWS V14.01,2013-01-16 00:23:00,
2013-01-15 18:28:00,25.3,13.4,29.76,ENE,57,1.0,5.0,60,0.00,,OVC200,0.00,0.00,VWS V14.01,2013-01-16 00:28:00,
2013-01-15 18:30:00,25.1,13.2,29.75,ENE,61,3.0,6.0,60,0.00,,OVC075,0.00,0.00,VWS V15.00,2013-01-16 00:30:00,
2013-01-15 18:33:00,25.1,13.2,29.75,ENE,62,3.0,6.0,60,0.00,,OVC200,0.00,0.00,VWS V14.01,2013-01-16 00:33:00,
2013-01-15 18:38:00,25.0,13.5,29.75,ENE,67,1.0,5.0,61,0.00,,OVC200,0.00,0.00,VWS V14.01,2013-01-16 00:38:00,
2013-01-15 18:43:00,25.0,13.5,29.75,NE,54,3.0,6.0,61,0.00,,OVC200,0.00,0.00,VWS V14.01,2013-01-16 00:43:00,
2013-01-15 18:48:00,25.0,13.8,29.75,ENE,65,1.0,6.0,62,0.00,,OVC200,0.00,0.00,VWS V14.01,2013-01-16 00:48:00,
2013-01-15 18:53:00,25.0,13.8,29.75,ENE,61,2.0,7.0,62,0.00,,OVC200,0.00,0.00,VWS V14.01,2013-01-16 00:53:00,
2013-01-15 18:58:00,25.0,14.2,29.75,ESE,116,3.0,7.0,63,0.00,,OVC200,0.00,0.00,VWS V14.01,2013-01-16 00:58:00,
2013-01-15 19:00:00,25.1,14.6,29.74,ENE,60,3.0,7.0,64,0.00,,OVC075,0.00,0.00,VWS V15.00,2013-01-16 01:00:00,
2013-01-15 19:03:00,25.1,14.6,29.74,ENE,59,4.0,7.0,64,0.00,,OVC200,0.00,0.00,VWS V14.01,2013-01-16 01:03:00,
2013-01-15 19:08:00,25.4,15.3,29.74,SE,133,3.0,10.0,65,0.00,,OVC200,0.00,0.00,VWS V14.01,2013-01-16 01:08:00,
2013-01-15 19:13:00,25.7,15.6,29.74,ENE,61,6.0,10.0,65,0.00,,OVC200,0.00,0.00,VWS V14.01,2013-01-16 01:13:00,
2013-01-15 19:18:00,25.8,16.0,29.73,SE,128,5.0,10.0,66,0.00,,OVC200,0.00,0.00,VWS V14.01,2013-01-16 01:18:00,
2013-01-15 19:23:00,25.8,16.0,29.73,ENE,73,8.0,10.0,66,0.00,,OVC200,0.00,0.00,VWS V14.01,2013-01-16 01:23:00,
2013-01-15 19:28:00,25.8,16.4,29.73,ENE,60,3.0,11.0,67,0.00,,OVC200,0.00,0.00,VWS V14.01,2013-01-16 01:28:00,
2013-01-15 19:30:00,26.0,16.6,29.72,NNE,32,4.0,11.0,67,0.00,,OVC075,0.00,0.00,VWS V15.00,2013-01-16 01:30:00,
2013-01-15 19:33:00,26.0,16.6,29.72,ENE,62,6.0,11.0,67,0.00,,OVC200,0.00,0.00,VWS V14.01,2013-01-16 01:33:00,
2013-01-15 19:38:00,26.0,16.6,29.72,ENE,76,6.0,11.0,67,0.00,,OVC200,0.00,0.00,VWS V14.01,2013-01-16 01:38:00,
2013-01-15 19:43:00,26.0,16.6,29.72,ENE,59,6.0,11.0,67,0.00,,OVC200,0.00,0.00,VWS V14.01,2013-01-16 01:43:00,
2013-01-15 19:48:00,26.0,16.6,29.71,NE,49,7.0,12.0,67,0.00,,OVC200,0.00,0.00,VWS V14.01,2013-01-16 01:48:00,
2013-01-15 19:53:00,25.8,16.4,29.71,ENE,68,9.0,12.0,67,0.00,,OVC200,0.00,0.00,VWS V14.01,2013-01-16 01:53:00,
2013-01-15 19:58:00,25.8,16.4,29.71,ENE,60,6.0,12.0,67,0.00,,OVC200,0.00,0.00,VWS V14.01,2013-01-16 01:58:00,
2013-01-15 20:00:00,25.7,16.6,29.71,ENE,63,2.0,12.0,68,0.00,,OVC075,0.00,0.00,VWS V15.00,2013-01-16 02:00:00,
2013-01-15 20:03:00,25.7,16.6,29.71,NE,49,9.0,12.0,68,0.00,,OVC200,0.00,0.00,VWS V14.01,2013-01-16 02:03:00,
2013-01-15 20:08:00,25.7,16.6,29.71,ENE,78,4.0,10.0,68,0.00,,OVC200,0.00,0.00,VWS V14.01,2013-01-16 02:08:00,
2013-01-15 20:13:00,25.6,16.5,29.71,NNE,32,3.0,10.0,68,0.00,,OVC200,0.00,0.00,VWS V14.01,2013-01-16 02:13:00,
2013-01-15 20:18:00,25.6,16.5,29.69,ENE,67,4.0,12.0,68,0.00,,OVC200,0.00,0.00,VWS V14.01,2013-01-16 02:18:00,
2013-01-15 20:23:00,25.4,16.3,29.69,ENE,63,6.0,12.0,68,0.00,,OVC200,0.00,0.00,VWS V14.01,2013-01-16 02:23:00,
2013-01-15 20:28:00,25.4,16.3,29.69,East,82,6.0,12.0,68,0.00,,OVC200,0.00,0.00,VWS V14.01,2013-01-16 02:28:00,
2013-01-15 20:30:00,25.4,16.3,29.68,NNE,23,10.0,12.0,68,0.00,,OVC075,0.00,0.00,VWS V15.00,2013-01-16 02:30:00,
2013-01-15 20:33:00,25.4,16.3,29.68,ENE,67,7.0,12.0,68,0.00,,OVC200,0.00,0.00,VWS V14.01,2013-01-16 02:33:00,
2013-01-15 20:38:00,25.3,16.2,29.68,ENE,74,2.0,10.0,68,0.00,,OVC200,0.00,0.00,VWS V14.01,2013-01-16 02:38:00,
2013-01-15 20:43:00,25.3,16.2,29.68,NE,40,5.0,12.0,68,0.00,,OVC200,0.00,0.00,VWS V14.01,2013-01-16 02:43:00,
2013-01-15 20:48:00,25.3,16.6,29.67,NNE,31,5.0,12.0,69,0.00,,OVC200,0.00,0.00,VWS V14.01,2013-01-16 02:48:00,
2013-01-15 20:53:00,25.3,16.6,29.67,NE,48,5.0,12.0,69,0.00,,OVC200,0.00,0.00,VWS V14.01,2013-01-16 02:53:00,
2013-01-15 20:58:00,25.3,16.6,29.67,NE,53,9.0,12.0,69,0.00,,OVC200,0.00,0.00,VWS V14.01,2013-01-16 02:58:00,
2013-01-15 21:00:00,25.1,16.4,29.65,NE,50,3.0,12.0,69,0.00,,OVC075,0.00,0.00,VWS V15.00,2013-01-16 03:00:00,
2013-01-15 21:03:00,25.1,16.4,29.65,SE,146,10.0,12.0,69,0.00,,OVC200,0.00,0.00,VWS V14.01,2013-01-16 03:03:00,
2013-01-15 21:08:00,25.1,16.4,29.65,East,81,4.0,11.0,69,0.00,,OVC200,0.00,0.00,VWS V14.01,2013-01-16 03:08:00,
2013-01-15 21:13:00,25.0,16.3,29.65,ENE,76,5.0,11.0,69,0.00,,OVC200,0.00,0.00,VWS V14.01,2013-01-16 03:13:00,
2013-01-15 21:18:00,24.8,16.1,29.64,ENE,63,10.0,12.0,69,0.00,,OVC200,0.00,0.00,VWS V14.01,2013-01-16 03:18:00,
2013-01-15 21:23:00,24.8,16.1,29.64,ESE,102,5.0,12.0,69,0.00,,OVC200,0.00,0.00,VWS V14.01,2013-01-16 03:23:00,
2013-01-15 21:28:00,24.7,16.0,29.64,ENE,69,7.0,12.0,69,0.00,,OVC200,0.00,0.00,VWS V14.01,2013-01-16 03:28:00,
2013-01-15 21:30:00,24.5,16.1,29.64,ENE,58,5.0,12.0,70,0.00,,OVC075,0.00,0.00,VWS V15.00,2013-01-16 03:30:00,
2013-01-15 21:33:00,24.5,16.1,29.64,East,101,6.0,12.0,70,0.00,,OVC200,0.00,0.00,VWS V14.01,2013-01-16 03:33:00,
2013-01-15 21:38:00,24.7,16.3,29.64,NNE,29,9.0,13.0,70,0.00,,OVC200,0.00,0.00,VWS V14.01,2013-01-16 03:38:00,
2013-01-15 21:43:00,24.7,16.0,29.64,ENE,74,3.0,13.0,69,0.00,,OVC200,0.00,0.00,VWS V14.01,2013-01-16 03:43:00,
2013-01-15 21:48:00,24.8,16.4,29.62,ENE,60,10.0,13.0,70,0.00,,OVC200,0.00,0.00,VWS V14.01,2013-01-16 03:48:00,
2013-01-15 21:53:00,24.7,16.3,29.62,East,83,3.0,13.0,70,0.00,,OVC200,0.00,0.00,VWS V14.01,2013-01-16 03:53:00,
2013-01-15 21:58:00,24.7,16.3,29.62,SE,138,7.0,13.0,70,0.00,,OVC200,0.00,0.00,VWS V14.01,2013-01-16 03:58:00,
2013-01-15 22:00:00,24.7,16.3,29.62,East,96,5.0,14.0,70,0.00,,OVC075,0.00,0.00,VWS V15.00,2013-01-16 04:00:00,
2013-01-15 22:03:00,24.7,16.3,29.62,ENE,57,6.0,14.0,70,0.00,,OVC200,0.00,0.00,VWS V14.01,2013-01-16 04:03:00,
2013-01-15 22:08:00,24.5,16.1,29.62,ESE,122,5.0,10.0,70,0.00,,OVC200,0.00,0.00,VWS V14.01,2013-01-16 04:08:00,
2013-01-15 22:13:00,24.5,16.5,29.62,NE,52,6.0,14.0,71,0.00,,OVC200,0.00,0.00,VWS V14.01,2013-01-16 04:13:00,
2013-01-15 22:18:00,24.5,16.5,29.61,ENE,59,6.0,14.0,71,0.00,,OVC200,0.00,0.00,VWS V14.01,2013-01-16 04:18:00,
2013-01-15 22:23:00,24.5,16.5,29.61,NNE,22,6.0,16.0,71,0.00,,OVC200,0.00,0.00,VWS V14.01,2013-01-16 04:23:00,
2013-01-15 22:28:00,24.5,16.5,29.61,ENE,78,6.0,16.0,71,0.00,,OVC200,0.00,0.00,VWS V14.01,2013-01-16 04:28:00,
2013-01-15 22:30:00,24.5,16.5,29.61,North,9,5.0,16.0,71,0.00,,OVC075,0.00,0.00,VWS V15.00,2013-01-16 04:30:00,
2013-01-15 22:33:00,24.5,16.5,29.61,NE,34,9.0,16.0,71,0.00,,OVC200,0.00,0.00,VWS V14.01,2013-01-16 04:33:00,
2013-01-15 22:38:00,24.5,16.5,29.61,ENE,57,9.0,17.0,71,0.00,,OVC200,0.00,0.00,VWS V14.01,2013-01-16 04:38:00,
2013-01-15 22:43:00,24.5,16.5,29.61,ENE,78,7.0,17.0,71,0.00,,OVC200,0.00,0.00,VWS V14.01,2013-01-16 04:43:00,
2013-01-15 22:48:00,24.5,16.5,29.59,ESE,102,6.0,17.0,71,0.00,,OVC200,0.00,0.00,VWS V14.01,2013-01-16 04:48:00,
2013-01-15 22:53:00,24.5,16.5,29.59,ENE,59,10.0,17.0,71,0.00,,OVC200,0.00,0.00,VWS V14.01,2013-01-16 04:53:00,
2013-01-15 22:58:00,24.5,16.5,29.59,ENE,78,11.0,17.0,71,0.00,,OVC200,0.00,0.00,VWS V14.01,2013-01-16 04:58:00,
2013-01-15 23:00:00,24.5,16.5,29.59,NE,42,9.0,17.0,71,0.00,,OVC200,0.00,0.00,VWS V14.01,2013-01-16 05:00:00,
2013-01-15 23:01:00,24.5,16.5,29.59,SE,138,6.0,17.0,71,0.00,,OVC200,0.00,0.00,VWS V14.01,2013-01-16 05:01:00,
2013-01-15 23:06:00,24.5,16.5,29.58,NE,36,3.0,15.0,71,0.00,,OVC200,0.00,0.00,VWS V14.01,2013-01-16 05:06:00,
2013-01-15 23:11:00,24.4,16.4,29.58,ENE,65,11.0,15.0,71,0.00,,OVC200,0.00,0.00,VWS V14.01,2013-01-16 05:11:00,
2013-01-15 23:16:00,24.4,16.4,29.58,East,82,9.0,15.0,71,0.00,,OVC200,0.00,0.00,VWS V14.01,2013-01-16 05:16:00,
2013-01-15 23:21:00,24.4,16.4,29.57,NE,49,7.0,15.0,71,0.00,,OVC200,0.00,0.00,VWS V14.01,2013-01-16 05:21:00,
2013-01-15 23:26:00,24.4,16.4,29.57,SSE,160,7.0,15.0,71,0.00,,OVC200,0.00,0.00,VWS V14.01,2013-01-16 05:26:00,
2013-01-15 23:30:00,24.4,16.4,29.56,NE,37,8.0,15.0,71,0.00,,OVC075,0.00,0.00,VWS V15.00,2013-01-16 05:30:00,
2013-01-15 23:31:00,24.4,16.4,29.57,ENE,77,3.0,15.0,71,0.00,,OVC200,0.00,0.00,VWS V14.01,2013-01-16 05:31:00,
2013-01-15 23:36:00,24.4,16.4,29.56,ENE,65,4.0,14.0,71,0.00,,OVC200,0.00,0.00,VWS V14.01,2013-01-16 05:36:00,
2013-01-15 23:41:00,24.2,16.2,29.56,NNE,17,10.0,14.0,71,0.00,,OVC200,0.00,0.00,VWS V14.01,2013-01-16 05:41:00,
2013-01-15 23:46:00,24.2,16.2,29.56,ENE,59,3.0,17.0,71,0.00,,OVC200,0.00,0.00,VWS V14.01,2013-01-16 05:46:00,
2013-01-15 23:51:00,24.1,16.1,29.56,NE,44,7.0,17.0,71,0.00,,OVC200,0.00,0.00,VWS V14.01,2013-01-16 05:51:00,
2013-01-15 23:56:00,23.9,15.9,29.56,SW,217,9.0,17.0,71,0.00,,OVC200,0.00,0.00,VWS V14.01,2013-01-16 05:56:00,